[[{"header":{"parameterUnit":"m.s-1","parameterCategory":1,"la1":30.2991,"la2":30.254,"lo1":-89.0895,"lo2":-89.0444,"dy":0.0017,"dx":0.0017,"nx":28,"ny":28,"refTime":"2024-03-01T09:00:00:Z","depth":0,"parameterNumber":2,"parameterNumberName":"U-component_of_WINDS"},"data":[0,0,0,0,0,0,0,0,0,0,0,0,0,0,0,0,0,0,0,0,0,0,0,0,0,0,0,0,0,0,0,0,0,0,0,0,0,0,0,0,0,0,0,0,0,0,0,0,0,0,0,0,0,0,0,0,0,0,-5.6575,-5.6578,0,-5.6833,-5.6836,-5.6839,-5.6898,-5.6896,-5.6895,-5.6893,-5.7155,-5.7163,-5.7172,0,0,0,0,0,0,0,0,0,0,0,0,0,-5.6133,-5.614,-5.6575,-5.6578,-5.6581,-5.6833,-5.6836,-5.684,-5.6898,-5.6896,-5.6894,-5.6892,-5.7152,-5.7162,-5.7173,0,0,0,0,0,0,0,0,0,0,0,0,0,-5.6351,-5.6143,-5.6574,-5.6641,-5.665,-5.6832,-5.6837,-5.6841,-5.6899,-5.6896,-5.6893,-5.6891,-5.7149,-5.7161,-5.7174,-5.7308,0,0,-5.7214,-5.722,0,0,0,0,0,0,0,0,-5.6339,-5.6367,-5.6628,-5.6637,-5.6647,-5.6831,-5.6777,-5.6998,-5.69,-5.6804,-5.6893,-5.689,-5.7049,-5.707,-5.7125,-5.7321,-5.7332,-5.7215,-5.7223,-5.7229,-5.7232,0,0,0,0,0,0,0,-5.6323,-5.6356,-5.6677,-5.6632,-5.6643,-5.6658,-5.6686,-5.6819,-5.6939,-5.6812,-5.6817,-5.6847,-5.7054,-5.7112,-5.7131,-5.7336,-5.7215,-5.7226,-5.7234,-5.7239,-5.7656,-5.7659,0,0,0,0,0,0,-5.6297,-5.6343,-5.6669,-5.6685,-5.6483,-5.6668,-5.67,-5.6774,-5.6937,-5.696,-5.6849,-5.6849,-5.7091,-5.7116,-5.714,-5.7308,-5.7228,-5.7241,-5.7248,-5.7653,-5.7657,-5.7661,0,0,0,0,0,0,-5.6287,-5.6325,-5.6659,-5.6516,-5.6559,-5.6679,-5.6762,-5.6781,-5.6839,-5.6965,-5.6987,-5.6886,-5.709,-5.7122,-5.7267,-5.7318,-5.7246,-5.7258,-5.7649,-5.7654,-5.7659,-5.7644,0,0,0,0,0,0,-5.6274,-5.6321,-5.6373,-5.6516,-5.6567,-5.678,-5.6765,-5.6788,-5.6861,-5.6864,-5.7006,-5.7027,-5.709,-5.7247,-5.7279,-5.7335,-5.7268,-5.7645,-5.7651,-5.7657,-5.7641,-5.7648,-5.7655,0,0,0,0,0,-5.6258,-5.6358,-5.6375,-5.6414,-5.6634,-5.6783,-5.6812,-5.6883,-5.6865,-5.6918,-5.7,-5.7022,-5.7308,-5.7261,-5.7298,-5.7358,-5.7642,-5.765,-5.7657,-5.7637,-5.7647,-5.7654,0,0,0,0,0,0,-5.6216,-5.6378,-5.6399,-5.6548,-5.6652,-5.6792,-5.6861,-5.689,-5.7,-5.6997,-5.7081,-5.7113,-5.7252,-5.732,-5.7265,-5.7498,-5.7474,-5.749,-5.7447,-5.7457,-5.7464,-5.7443,-5.7279,0,0,0,0,0,-5.6225,-5.6332,-5.6468,-5.6587,-5.6638,-5.6741,-5.6808,-5.6855,-5.6965,-5.7008,-5.71,-5.7206,-5.732,-5.7393,-5.7504,-5.7652,-5.7684,-5.7712,-5.7719,-5.7724,-5.7735,-5.7819,-5.7833,-5.7685,-5.7685,-5.7685,0,0,-5.6242,-5.6344,-5.6407,-5.6581,-5.6666,-5.6776,-5.6777,-5.6892,-5.6974,-5.7026,-5.7167,-5.7239,-5.7363,-5.751,-5.7579,-5.7571,-5.7784,-5.7733,-5.7736,-5.7745,-5.7828,-5.7842,-5.7854,-5.769,-5.7689,-5.7688,0,0,-5.633,-5.6418,-5.6527,-5.6614,-5.6744,-5.6812,-5.6838,-5.6977,-5.7026,-5.717,-5.7212,-5.7311,-5.7505,-5.7592,-5.7661,-5.7786,-5.781,-5.782,-5.7855,-5.7936,-5.7947,-5.7958,-5.8001,-5.8016,-5.7831,-5.7831,-5.7831,0,-5.6335,-5.6502,-5.6579,-5.6694,-5.6769,-5.6823,-5.6934,-5.7014,-5.7173,-5.7224,-5.7214,-5.746,-5.7547,-5.7715,-5.7745,-5.78,-5.7833,-5.7802,-5.7939,-5.7951,-5.7962,-5.8005,-5.8021,-5.7832,-5.7832,-5.7831,-5.7831,0,-5.6502,-5.6617,-5.669,-5.6843,-5.6928,-5.7039,-5.7134,-5.721,-5.7251,-5.732,-5.7467,-5.7574,-5.7709,-5.7753,-5.7793,-5.7928,-5.7918,-5.7923,-5.7901,-5.7975,-5.8016,-5.8033,-5.7832,-5.7832,-5.7832,-5.7832,0,0,-5.6566,-5.6764,-5.6789,-5.686,-5.701,-5.71,-5.7216,-5.7348,-5.7412,-5.7521,-5.7619,-5.7784,-5.779,-5.7869,-5.792,-5.7991,-5.8083,-5.7987,-5.7991,-5.8,-5.8237,-5.8231,-5.8248,-5.8101,-5.8105,-5.8108,-5.8226,0,-5.6671,-5.6879,-5.6953,-5.7124,-5.7231,-5.7286,-5.7387,-5.7489,-5.7559,-5.766,-5.7737,-5.7852,-5.7851,-5.7899,-5.7973,-5.8056,-5.8131,-5.8049,-5.8192,-5.8197,-5.8157,-5.827,-5.8264,-5.8371,-5.8243,-5.8246,-5.8248,0,-5.682,-5.6933,-5.7114,-5.7252,-5.73,-5.7388,-5.7517,-5.7614,-5.7732,-5.7778,-5.7867,-5.7914,-5.8037,-5.8011,-5.8181,-5.8124,-5.8188,-5.8238,-5.8244,-5.8258,-5.8224,-5.8285,-5.8407,-5.8421,-5.8274,-5.8272,-5.827,0,-5.6847,-5.7045,-5.7179,-5.7238,-5.7402,-5.7464,-5.7535,-5.7651,-5.7726,-5.7839,-5.7889,-5.8015,-5.8083,-5.8179,-5.8259,-5.8232,-5.8423,-5.8402,-5.8463,-5.8461,-5.8498,-5.8494,-5.8629,-5.8543,-5.8543,-5.8542,-5.8542,0,-5.6955,-5.7063,-5.7193,-5.7275,-5.7399,-5.7485,-5.7605,-5.768,-5.7783,-5.7881,-5.7937,-5.8028,-5.8129,-5.8233,-5.8296,-5.8428,-5.8459,-5.8499,-5.8514,-5.8492,-5.8487,-5.8533,-5.8527,-5.8547,-5.8546,-5.8545,-5.8544,0,-5.7005,-5.7096,-5.7246,-5.739,-5.7429,-5.7514,-5.7637,-5.772,-5.7793,-5.7916,-5.795,-5.8065,-5.8191,-5.8281,-5.8443,-5.8486,-5.8627,-5.8642,-5.8586,-5.8593,-5.8649,-5.8641,-5.8816,-5.8843,-5.874,-5.8741,-5.8742,0,-5.7066,-5.7151,-5.7305,-5.7375,-5.7446,-5.7559,-5.7637,-5.7726,-5.7805,-5.7947,-5.8012,-5.8142,-5.8251,-5.8449,-5.8547,-5.8671,-5.8689,-5.8742,-5.8708,-5.8684,-5.8689,-5.8681,-5.869,-5.8746,-5.8746,-5.8747,-5.8748,0,-5.7165,-5.7207,-5.7317,-5.7445,-5.7537,-5.7641,-5.7747,-5.7801,-5.7908,-5.7995,-5.8124,-5.8209,-5.8375,-5.8503,-5.8638,-5.8712,-5.8747,-5.8758,-5.8779,-5.8756,-5.872,-5.8739,-5.8598,-5.8753,-5.8752,-5.8752,-5.8752,-5.8751,-5.7222,-5.73,-5.7421,-5.7543,-5.7632,-5.773,-5.7814,-5.7899,-5.8009,-5.8152,-5.8198,-5.8332,-5.8451,-5.8636,-5.8711,-5.8818,-5.8815,-5.8845,-5.8852,-5.8858,-5.8856,-5.8705,-5.8843,-5.8843,-5.8843,-5.8843,-5.8843,0,-5.7322,-5.7404,-5.7515,-5.7661,-5.7758,-5.7785,-5.7904,-5.7982,-5.81,-5.8208,-5.8314,-5.8464,-5.8589,-5.8698,-5.8829,-5.8893,-5.8913,-5.8924,-5.8919,-5.8935,-5.8851,-5.882,-5.8906,-5.8906,-5.8906,-5.8906,-5.8906,-5.8906,-5.7386,-5.752,-5.7576,-5.7756,-5.7837,-5.7969,-5.8035,-5.8125,-5.8212,-5.8377,-5.8482,-5.8552,-5.8661,-5.88,-5.8917,-5.8946,-5.899,-5.8997,-5.903,-5.8949,-5.8941,-5.8934,-5.8905,-5.9007,-5.9007,-5.9105,-5.9106,-5.9106]},{"header":{"parameterUnit":"m.s-1","parameterCategory":1,"la1":30.2991,"la2":30.254,"lo1":-89.0895,"lo2":-89.0444,"dy":0.0017,"dx":0.0017,"nx":28,"ny":28,"refTime":"2024-03-01T09:00:00:Z","depth":0,"parameterNumber":3,"parameterNumberName":"V-component_of_WINDS"},"data":[0,0,0,0,0,0,0,0,0,0,0,0,0,0,0,0,0,0,0,0,0,0,0,0,0,0,0,0,0,0,0,0,0,0,0,0,0,0,0,0,0,0,0,0,0,0,0,0,0,0,0,0,0,0,0,0,0,0,5.4321,5.4322,0,5.4405,5.4406,5.4407,5.4393,5.4392,5.4391,5.4389,5.4471,5.4475,5.4478,0,0,0,0,0,0,0,0,0,0,0,0,0,5.4147,5.415,5.4321,5.4322,5.4323,5.4405,5.4406,5.4407,5.4394,5.4392,5.439,5.4389,5.447,5.4474,5.4478,0,0,0,0,0,0,0,0,0,0,0,0,0,5.4226,5.4151,5.4321,5.4326,5.4328,5.4405,5.4406,5.4408,5.4394,5.4392,5.439,5.4388,5.4469,5.4474,5.4479,5.4555,0,0,5.4495,5.4498,0,0,0,0,0,0,0,0,5.4221,5.4232,5.4325,5.4326,5.4328,5.4387,5.4375,5.4457,5.4395,5.4369,5.4389,5.4387,5.4445,5.4452,5.4472,5.4559,5.4562,5.4496,5.4499,5.4501,5.4503,0,0,0,0,0,0,0,5.4216,5.4229,5.4354,5.4326,5.4328,5.4324,5.4333,5.439,5.4418,5.4371,5.437,5.438,5.4445,5.4467,5.4474,5.4563,5.4496,5.45,5.4503,5.4506,5.472,5.4722,0,0,0,0,0,0,5.4209,5.4224,5.4352,5.4357,5.4268,5.4329,5.4339,5.437,5.4417,5.4422,5.4382,5.4379,5.4459,5.4468,5.4477,5.4571,5.4501,5.4506,5.4509,5.4717,5.4721,5.4723,0,0,0,0,0,0,5.4206,5.4221,5.4348,5.429,5.4306,5.4334,5.4369,5.4373,5.4395,5.4426,5.443,5.44,5.4458,5.4469,5.4537,5.4574,5.4508,5.4513,5.4714,5.4718,5.4722,5.476,0,0,0,0,0,0,5.4201,5.422,5.4249,5.4291,5.431,5.4408,5.4372,5.4376,5.4404,5.4402,5.4443,5.4448,5.4457,5.4529,5.4542,5.458,5.4517,5.4711,5.4716,5.4721,5.4755,5.4764,5.4772,0,0,0,0,0,5.4195,5.4255,5.4251,5.4266,5.4347,5.441,5.442,5.443,5.4407,5.4437,5.4458,5.4447,5.4567,5.4536,5.455,5.4591,5.4709,5.4715,5.472,5.4751,5.4762,5.4772,0,0,0,0,0,0,5.4214,5.426,5.4256,5.4332,5.4367,5.4407,5.4445,5.4441,5.4482,5.4478,5.4487,5.4497,5.4566,5.4584,5.4548,5.4668,5.4635,5.4644,5.4654,5.4664,5.4673,5.4667,5.4522,0,0,0,0,0,5.4227,5.4275,5.4312,5.4376,5.4394,5.4417,5.4444,5.4449,5.4486,5.45,5.4525,5.456,5.4606,5.4636,5.4679,5.4757,5.4767,5.4792,5.4801,5.4808,5.4816,5.4861,5.4873,5.4742,5.4742,5.4742,0,0,5.4255,5.4286,5.4315,5.4381,5.4408,5.4458,5.4429,5.4482,5.4519,5.4507,5.4574,5.4593,5.4633,5.4707,5.4741,5.4725,5.4854,5.4815,5.482,5.4824,5.4868,5.4881,5.4892,5.4746,5.4745,5.4744,0,0,5.4331,5.4359,5.4416,5.4446,5.4489,5.4504,5.4518,5.456,5.4573,5.464,5.4634,5.4677,5.4755,5.4785,5.481,5.4901,5.4893,5.4914,5.4959,5.5003,5.5013,5.5023,5.5057,5.5069,5.4922,5.4922,5.4922,0,5.4359,5.4435,5.4445,5.4501,5.453,5.4524,5.4583,5.461,5.4665,5.4686,5.4668,5.4768,5.4794,5.4877,5.4899,5.4919,5.4936,5.491,5.5011,5.502,5.5029,5.5063,5.5075,5.4924,5.4924,5.4924,5.4924,0,5.4469,5.4521,5.4562,5.4619,5.4653,5.4709,5.4728,5.4761,5.4764,5.4781,5.485,5.4881,5.4933,5.4952,5.4954,5.5036,5.5025,5.5009,5.4976,5.5044,5.5076,5.5088,5.4928,5.4927,5.4926,5.4926,0,0,5.4559,5.4623,5.4638,5.4665,5.4714,5.4754,5.481,5.4863,5.4892,5.493,5.4979,5.5047,5.5033,5.5062,5.5067,5.5105,5.5179,5.5085,5.5086,5.5103,5.5274,5.5288,5.5302,5.5174,5.5176,5.5178,5.5271,0,5.4642,5.4744,5.4756,5.4846,5.4896,5.4892,5.4942,5.4977,5.4995,5.5039,5.5058,5.5108,5.5084,5.5102,5.514,5.5162,5.5213,5.5155,5.522,5.5222,5.5212,5.5318,5.5332,5.5419,5.5283,5.5285,5.5287,0,5.4752,5.4797,5.4893,5.4938,5.4959,5.5004,5.5054,5.5096,5.5137,5.5147,5.5181,5.5182,5.5241,5.5205,5.5287,5.5247,5.5274,5.5289,5.5292,5.53,5.526,5.5331,5.5446,5.546,5.5306,5.5304,5.5303,0,5.4812,5.4895,5.4965,5.4987,5.5041,5.5073,5.5096,5.5134,5.5166,5.521,5.5231,5.528,5.5307,5.5345,5.5359,5.5332,5.5442,5.5406,5.5453,5.5453,5.5477,5.5476,5.5601,5.5491,5.5491,5.5491,5.549,0,5.4904,5.4964,5.4993,5.5036,5.5103,5.5116,5.5182,5.5204,5.5239,5.5286,5.5284,5.5328,5.5343,5.539,5.5401,5.5469,5.548,5.5491,5.5494,5.5493,5.5492,5.5512,5.5507,5.5494,5.5493,5.5493,5.5492,0,5.4983,5.5005,5.508,5.5126,5.5139,5.5186,5.5225,5.5266,5.5284,5.5344,5.5359,5.5387,5.5442,5.546,5.5525,5.5533,5.5613,5.5609,5.56,5.5601,5.5648,5.5645,5.5792,5.5813,5.5687,5.5688,5.5689,0,5.5042,5.5088,5.5139,5.5172,5.5198,5.5249,5.5282,5.5297,5.5332,5.5383,5.5419,5.5474,5.5519,5.5608,5.5633,5.5684,5.5683,5.5731,5.5691,5.5689,5.5687,5.5685,5.5691,5.5739,5.5741,5.5742,5.5743,0,5.5145,5.5154,5.5203,5.5257,5.5297,5.5339,5.538,5.5406,5.5427,5.5466,5.5524,5.5559,5.5628,5.5684,5.5736,5.5759,5.5756,5.5755,5.5769,5.577,5.5764,5.5771,5.5624,5.5752,5.5751,5.575,5.575,5.575,5.5217,5.526,5.5304,5.5359,5.5391,5.543,5.5473,5.5497,5.5546,5.5605,5.561,5.5673,5.5714,5.5784,5.5811,5.586,5.5846,5.5866,5.5871,5.5877,5.5882,5.5755,5.5869,5.5869,5.5869,5.5868,5.5868,0,5.5323,5.5352,5.5402,5.5461,5.5505,5.5498,5.5544,5.5581,5.5637,5.5676,5.5721,5.5789,5.5843,5.5874,5.5928,5.5962,5.5962,5.5976,5.5975,5.5981,5.5889,5.5873,5.5976,5.5975,5.5975,5.5975,5.5975,5.5975,5.5383,5.5456,5.547,5.5559,5.5587,5.565,5.5677,5.5713,5.5745,5.5822,5.5868,5.5888,5.5924,5.5982,5.6032,5.6039,5.606,5.6077,5.6083,5.5998,5.5987,5.5976,5.5961,5.608,5.6081,5.6171,5.6172,5.6172]}]]